User: anonymous   Login
Location: Ostrava
(49.8330°N, 18.2830°E)
Time: 11:45:26
(UTC+01:00)
Language:

NOAA 19 - Orbit

View from above orbital plane
View from above orbital plane
View from above satellite
View from above satellite

Ground track
Ground track

The orbit data is extracted from the following two-line orbital elements,

1 33591U 09005A   14352.55213881  .00000454  00000-0  27333-3 0  5027
2 33591 098.9686 297.2304 0013351 322.7478 157.8794 14.11833077302003
Epoch (UTC): 18 December 2014 13:15:04
Eccentricity: 0.0013351
inclination: 98.9686°
perigee height: 843 km
apogee height: 863 km
right ascension of ascending node: 297.2304°
argument of perigee: 322.7478°
revolutions per day: 14.11833077
mean anomaly at epoch: 157.8794°
orbit number at epoch: 30200

The dashed part of the orbit path shows where the satellite is in the earth's shadow,  

DLR